map of CBB home
Great Circle Mapper logo
CBB - Airport
Location
City:  Cochabamba, Bolivia
Name:Jórge Wilsterman International Airport
ICAO / IATA:SLCB / CBB

Details
Type:Airport (Aerodrome, Airfield)
Use:Public/Civil, Military, International (customs port of entry)
Latitude:17°25'16"S (-17.421057)
Longitude:66°10'38"W (-66.177113)
Datum:WGS 1984
Elevation:8360 ft (2548 m)
Runways:2
Longest:12460 × 148 ft (3798 × 45 m), paved

Time
Time Zone:UTC-4
Local Time:

Weather
METAR:SLCB 010300Z 13004KT 9999 FEW027 SCT200 19/04 Q1025
TAF:SLCB 301600Z 3018/0118 25010KT 9999 FEW027 TX29/3019Z TN09/0110Z
TEMPO 3019/3022 FEW030CB
BECMG 0102/0104 00000KT SCT027 SCT070

Related Locations
Nearby:
Farthest:ZJYX: 12339 mi / 19858 km
Yongxing Dao, Xisha Islands (Woody Island, Paracel Islands), CN

Find:

   beyond  
but within

Other Information
Maps:
NOTAMs:
Links:
Sources:

  
flag of Bolivia   

Sectional Chart

Flight Planning
at skyvector.com

Satellite Image

Google Maps Satellite View

 

Copyright © 2004-2014 Karl L. Swartz. All rights reserved.
The Great Circle Mapper name and logo are trademarks of the Great Circle Mapper.
All other trademarks mentioned herein belong to their respective owners.
Please see credits for attibutions and further copyright information.

  Follow gcmap on Facebook Follow gcmap on Twitter

hCard Microformat

Geo Microformat